Observations for Trim Market St
| Time | AQI | Temp °C | Hum % | Pres Pa | CO μg/m³ | H₂S μg/m³ | NO μg/m³ | NO₂ μg/m³ | O₃ μg/m³ | SO₂ μg/m³ | PM1 μg/m³ | PM2.5 μg/m³ | PM10 μg/m³ |
|---|---|---|---|---|---|---|---|---|---|---|---|---|---|
| Tuesday 18 August 2026 | |||||||||||||
| 06:52 | 2 | 17.3 | 79 | 2,147,483,647 | 0.15 | 0 | 1.95 | 6.23 | 66.18 | 0 | 1.43 | 3.12 | 7.53 |
| 06:50 | 2 | 17.3 | 78 | 2,147,483,647 | 0.2 | 0 | 1.96 | 12.75 | 69.81 | 0 | 1.43 | 3.6 | 6.95 |
| 06:49 | 2 | 17.3 | 78 | 2,147,483,647 | 0.17 | 0 | 2.02 | 18.84 | 54.54 | 0 | 0.71 | 3.13 | 6.95 |
| 06:48 | 2 | 17.4 | 78 | 2,147,483,647 | 0.17 | 0 | 2.03 | 27.59 | 49.3 | 0 | 1.43 | 3.13 | 8.11 |
| 06:47 | 2 | 17.3 | 78 | 2,147,483,647 | 0.18 | 0 | 2.07 | 40.23 | 51.79 | 0 | 2.14 | 4.08 | 6.95 |
| 06:45 | 2 | 17.4 | 78 | 410 | 0.15 | 0 | 1.99 | 7.11 | 70.28 | 0 | 1.43 | 2.66 | 5.22 |
| 06:44 | 2 | 17.4 | 78 | 2,928 | 0.16 | 0 | 1.93 | 7.01 | 69.68 | 0 | 1.43 | 3.15 | 6.37 |
| 06:40 | 2 | 17.4 | 78 | 9,833 | 0.16 | 0 | 1.93 | 6 | 66.48 | 0 | 1.43 | 2.69 | 5.21 |
| 06:37 | 2 | 17.4 | 78 | 13,342 | 0.14 | 0 | 1.92 | 7.28 | 68.74 | 0 | 0.71 | 3.17 | 6.37 |
| 06:31 | 2 | 17.4 | 78 | 13,959 | 0.13 | 0 | 1.92 | 6.1 | 63.42 | 0 | 0.71 | 2.7 | 7.53 |
| 06:29 | 2 | 17.4 | 78 | 14,296 | 0.15 | 0 | 1.92 | 6.55 | 65.93 | 0 | 1.43 | 3.18 | 5.78 |
| 06:26 | 2 | 17.4 | 77 | 14,636 | 0.13 | 0 | 1.92 | 6.38 | 64.69 | 0 | 1.43 | 3.18 | 5.78 |
| 06:25 | 2 | 17.4 | 77 | 14,913 | 0.13 | 0 | 1.93 | 4.96 | 58.49 | 0 | 1.43 | 2.23 | 4.62 |
| 06:24 | 2 | 17.4 | 77 | 15,146 | 0.13 | 0 | 1.93 | 6.71 | 74.81 | 0 | 1.43 | 3.66 | 7.53 |
| 06:23 | 2 | 17.4 | 77 | 15,481 | 0.14 | 0 | 1.92 | 6.38 | 67.8 | 0 | 1.43 | 2.71 | 6.95 |
| 06:22 | 2 | 17.4 | 77 | 15,783 | 0.15 | 0 | 1.92 | 6.86 | 60.37 | 0 | 1.43 | 3.18 | 5.78 |
| 06:21 | 2 | 17.4 | 77 | 16,272 | 0.15 | 0 | 1.92 | 7.27 | 70.14 | 0 | 2.14 | 3.19 | 7.53 |
| 06:20 | 2 | 17.4 | 77 | 16,789 | 0.13 | 0 | 1.92 | 6.04 | 59.36 | 0 | 2.85 | 5.09 | 8.11 |
| 06:19 | 2 | 17.4 | 77 | 17,229 | 0.12 | 0 | 1.92 | 7.05 | 75.88 | 0 | 1.43 | 3.19 | 6.95 |
| 06:18 | 2 | 17.4 | 77 | 17,709 | 0.13 | 0 | 1.92 | 6.6 | 67.28 | 0 | 2.14 | 3.66 | 6.95 |